• In Hungary
  • List of Countries
  • For 7 days
  • Water Temperature
  • Satellite Maps
  • Weather Map
  • News
  • Weather Widgets
  • user-avatar
    Login

    Hourly Weather Porto-Novo

    Today, 17 October, Tuesday

    Time Temperature Precipitation Wind Pressure Humidity
    00:00 +28°C° 0 mm 3 mps 759 mmHg 87%
    01:00 +28°C° 0 mm 3 mps 759 mmHg 88%
    02:00 +27°C° 0 mm 3 mps 758 mmHg 89%
    03:00 +27°C° 0 mm 3 mps 758 mmHg 90%
    04:00 +27°C° 0 mm 3 mps 758 mmHg 91%
    05:00 +27°C° 0 mm 3 mps 759 mmHg 91%
    06:00 +27°C° 0 mm 3 mps 759 mmHg 91%
    07:00 +28°C° 0 mm 3 mps 759 mmHg 84%
    08:00 +30°C° 0 mm 3 mps 760 mmHg 77%
    09:00 +31°C° 0 mm 3 mps 760 mmHg 70%
    10:00 +34°C° 0 mm 3 mps 760 mmHg 65%
    11:00 +35°C° 0 mm 3 mps 759 mmHg 59%
    12:00 +36°C° 0 mm 3 mps 759 mmHg 54%
    13:00 +36°C° 0 mm 3 mps 758 mmHg 55%
    14:00 +35°C° 0 mm 4 mps 758 mmHg 55%
    15:00 +35°C° 0 mm 4 mps 757 mmHg 56%
    16:00 +34°C° 0 mm 4 mps 757 mmHg 63%
    17:00 +32°C° 0 mm 4 mps 758 mmHg 70%
    18:00 +29°C° 0 mm 4 mps 758 mmHg 77%
    19:00 +29°C° 0 mm 4 mps 759 mmHg 79%
    20:00 +29°C° 0 mm 4 mps 759 mmHg 81%
    21:00 +28°C° 0 mm 4 mps 760 mmHg 83%
    22:00 +28°C° 0 mm 4 mps 760 mmHg 84%
    23:00 +28°C° 0 mm 4 mps 759 mmHg 84%

    Tomorrow, 18 October, Wednesday

    Time Temperature Precipitation Wind Pressure Humidity
    00:00 +28°C° 0 mm 4 mps 759 mmHg 85%
    01:00 +28°C° 0 mm 4 mps 759 mmHg 86%
    02:00 +28°C° 0 mm 4 mps 758 mmHg 86%
    03:00 +28°C° 0 mm 4 mps 758 mmHg 87%
    04:00 +28°C° 0 mm 4 mps 758 mmHg 88%
    05:00 +28°C° 0 mm 3 mps 758 mmHg 88%
    06:00 +28°C° 0 mm 3 mps 758 mmHg 88%
    07:00 +29°C° 0 mm 3 mps 759 mmHg 83%
    08:00 +30°C° 0 mm 4 mps 759 mmHg 77%
    09:00 +32°C° 0 mm 4 mps 760 mmHg 72%
    10:00 +32°C° 0 mm 4 mps 759 mmHg 69%
    11:00 +33°C° 0 mm 4 mps 759 mmHg 67%
    12:00 +34°C° 0 mm 4 mps 758 mmHg 64%
    13:00 +34°C° 0.1 mm 4 mps 758 mmHg 64%
    14:00 +34°C° 0.1 mm 4 mps 757 mmHg 64%
    15:00 +34°C° 0.1 mm 4 mps 756 mmHg 64%
    16:00 +32°C° 0.2 mm 4 mps 757 mmHg 68%
    17:00 +30°C° 0.2 mm 4 mps 757 mmHg 73%
    18:00 +29°C° 0.2 mm 4 mps 758 mmHg 78%
    19:00 +29°C° 0.2 mm 4 mps 758 mmHg 80%
    20:00 +28°C° 0.2 mm 3 mps 759 mmHg 81%
    21:00 +28°C° 0.2 mm 3 mps 759 mmHg 82%
    22:00 +28°C° 0 mm 3 mps 759 mmHg 83%
    23:00 +28°C° 0 mm 3 mps 759 mmHg 84%

    Day after tomorrow, 19 October, Thursday

    Time Temperature Precipitation Wind Pressure Humidity
    00:00 +28°C° 0 mm 3 mps 759 mmHg 84%
    01:00 +28°C° 0 mm 3 mps 758 mmHg 85%
    02:00 +27°C° 0 mm 3 mps 758 mmHg 86%
    03:00 +27°C° 0 mm 3 mps 757 mmHg 86%
    04:00 +27°C° 0 mm 3 mps 758 mmHg 86%
    05:00 +27°C° 0 mm 3 mps 758 mmHg 86%
    06:00 +27°C° 0 mm 3 mps 758 mmHg 86%
    07:00 +29°C° 0 mm 3 mps 759 mmHg 79%
    08:00 +30°C° 0 mm 3 mps 759 mmHg 72%
    09:00 +33°C° 0 mm 4 mps 760 mmHg 64%
    10:00 +34°C° 0 mm 4 mps 759 mmHg 61%
    11:00 +35°C° 0 mm 4 mps 759 mmHg 58%
    12:00 +35°C° 0 mm 4 mps 758 mmHg 55%
    13:00 +35°C° 0.1 mm 4 mps 758 mmHg 57%
    14:00 +35°C° 0.1 mm 4 mps 757 mmHg 59%
    15:00 +34°C° 0.1 mm 4 mps 756 mmHg 60%
    16:00 +33°C° 0.1 mm 4 mps 757 mmHg 66%
    17:00 +30°C° 0.1 mm 4 mps 757 mmHg 72%
    18:00 +29°C° 0.1 mm 3 mps 758 mmHg 78%
    19:00 +29°C° 0.1 mm 3 mps 758 mmHg 80%
    20:00 +28°C° 0.1 mm 3 mps 759 mmHg 81%
    21:00 +28°C° 0.1 mm 3 mps 759 mmHg 83%
    22:00 +28°C° 0.4 mm 3 mps 759 mmHg 83%
    23:00 +28°C° 0.4 mm 3 mps 759 mmHg 84%

    20 October, Friday

    Time Temperature Precipitation Wind Pressure Humidity
    00:00 +28°C° 0.4 mm 3 mps 759 mmHg 84%
    01:00 +28°C° 0.1 mm 3 mps 758 mmHg 84%
    02:00 +28°C° 0.1 mm 3 mps 758 mmHg 83%
    03:00 +28°C° 0.1 mm 3 mps 757 mmHg 83%
    04:00 +28°C° 0 mm 3 mps 758 mmHg 84%
    05:00 +28°C° 0 mm 3 mps 758 mmHg 84%
    06:00 +28°C° 0 mm 3 mps 758 mmHg 85%
    07:00 +29°C° 0 mm 3 mps 758 mmHg 77%
    08:00 +31°C° 0 mm 3 mps 759 mmHg 70%
    09:00 +33°C° 0 mm 3 mps 759 mmHg 62%
    10:00 +35°C° 0 mm 3 mps 758 mmHg 58%
    11:00 +36°C° 0 mm 3 mps 758 mmHg 54%
    12:00 +37°C° 0 mm 3 mps 757 mmHg 50%
    13:00 +36°C° 0.1 mm 3 mps 757 mmHg 52%
    14:00 +35°C° 0.1 mm 3 mps 756 mmHg 55%
    15:00 +35°C° 0.1 mm 4 mps 756 mmHg 58%
    16:00 +33°C° 0.1 mm 3 mps 756 mmHg 65%
    17:00 +31°C° 0.1 mm 3 mps 757 mmHg 71%
    18:00 +29°C° 0.1 mm 3 mps 757 mmHg 78%
    19:00 +29°C° 0 mm 3 mps 758 mmHg 80%
    20:00 +29°C° 0 mm 3 mps 758 mmHg 82%
    21:00 +28°C° 0 mm 3 mps 759 mmHg 84%
    22:00 +28°C° 0 mm 3 mps 759 mmHg 85%
    23:00 +28°C° 0 mm 3 mps 759 mmHg 86%

    21 October, Saturday

    Time Temperature Precipitation Wind Pressure Humidity
    00:00 +28°C° 0 mm 3 mps 758 mmHg 86%
    01:00 +28°C° 0 mm 3 mps 758 mmHg 87%
    02:00 +28°C° 0 mm 3 mps 758 mmHg 87%
    03:00 +28°C° 0 mm 3 mps 758 mmHg 88%
    04:00 +28°C° 0 mm 3 mps 758 mmHg 88%
    05:00 +28°C° 0 mm 3 mps 758 mmHg 88%
    06:00 +28°C° 0 mm 3 mps 758 mmHg 88%
    07:00 +29°C° 0 mm 3 mps 759 mmHg 80%
    08:00 +31°C° 0 mm 3 mps 759 mmHg 73%
    09:00 +33°C° 0 mm 3 mps 759 mmHg 65%
    10:00 +34°C° 0 mm 3 mps 758 mmHg 63%
    11:00 +34°C° 0 mm 3 mps 758 mmHg 61%
    12:00 +35°C° 0 mm 3 mps 757 mmHg 59%
    13:00 +34°C° 0 mm 3 mps 757 mmHg 60%
    14:00 +34°C° 0 mm 3 mps 756 mmHg 62%
    15:00 +34°C° 0 mm 3 mps 756 mmHg 63%
    16:00 +33°C° 0 mm 3 mps 756 mmHg 67%
    17:00 +31°C° 0 mm 3 mps 757 mmHg 72%
    18:00 +30°C° 0 mm 3 mps 757 mmHg 76%
    19:00 +29°C° 0 mm 3 mps 758 mmHg 78%
    20:00 +29°C° 0 mm 3 mps 758 mmHg 79%
    21:00 +29°C° 0 mm 3 mps 759 mmHg 81%
    22:00 +29°C° 0 mm 3 mps 758 mmHg 82%
    23:00 +28°C° 0 mm 3 mps 758 mmHg 83%

    22 October, Sunday

    Time Temperature Precipitation Wind Pressure Humidity
    00:00 +28°C° 0 mm 4 mps 758 mmHg 84%
    01:00 +28°C° 0 mm 3 mps 758 mmHg 85%
    02:00 +28°C° 0 mm 3 mps 757 mmHg 86%
    03:00 +28°C° 0 mm 3 mps 757 mmHg 87%
    04:00 +28°C° 0 mm 3 mps 757 mmHg 87%
    05:00 +28°C° 0 mm 3 mps 758 mmHg 87%
    06:00 +28°C° 0 mm 3 mps 758 mmHg 88%
    07:00 +29°C° 0 mm 3 mps 758 mmHg 80%
    08:00 +31°C° 0 mm 3 mps 759 mmHg 73%
    09:00 +33°C° 0 mm 4 mps 759 mmHg 65%
    10:00 +34°C° 0 mm 4 mps 758 mmHg 63%
    11:00 +34°C° 0 mm 4 mps 758 mmHg 61%
    12:00 +35°C° 0 mm 4 mps 757 mmHg 59%
    13:00 +34°C° 0 mm 4 mps 757 mmHg 61%
    14:00 +34°C° 0 mm 4 mps 756 mmHg 63%
    15:00 +33°C° 0 mm 4 mps 756 mmHg 64%
    16:00 +32°C° 0 mm 4 mps 756 mmHg 69%
    17:00 +30°C° 0 mm 4 mps 757 mmHg 73%
    18:00 +29°C° 0 mm 4 mps 757 mmHg 78%
    19:00 +29°C° 0 mm 3 mps 758 mmHg 80%
    20:00 +29°C° 0 mm 3 mps 758 mmHg 82%
    21:00 +28°C° 0 mm 3 mps 759 mmHg 85%
    22:00 +28°C° 0 mm 3 mps 758 mmHg 85%
    23:00 +28°C° 0 mm 3 mps 758 mmHg 86%
    Show more